Andrews, NC

4:49 AM EST on November 22, 2017 (GMT -0500)
Andrews

Weather History for KRHP - November, 2013

Change the Weather History Date:

Sunday, November 24, 2013

  Actual Average (KMMI) Record (KMMI)
Temperature  
Mean Temperature 32 °F -  
Max Temperature 41 °F 56 °F 71 °F (2014)
Min Temperature 23 °F 33 °F 21 °F (2013)
Degree Days  
Heating Degree Days 33    
Moisture  
Dew Point 13 °F    
Average Humidity 52    
Maximum Humidity 85    
Minimum Humidity 22    
Precipitation  
Precipitation 0.00 in - - ()
Sea Level Pressure  
Sea Level Pressure 30.37 in    
Wind  
Wind Speed 7 mph (NNE)    
Max Wind Speed 16 mph    
Max Gust Speed 22 mph    
Visibility 10 miles    
Events      
Averages and records for this station are not official NWS values.
T = Trace of Precipitation, MM = Missing Value Source: NWS Daily Summary

Daily Weather History Graph

Daily Weather History Graph

Search for Another Location

Airport or City:

Trip Planner

Search our weather history database for the weather conditions in past years. The results will help you decide how hot, cold, wet, or windy it might be!

Date:

Astronomy

Nov. 24, 2013 Rise Set
Actual Time 7:19 AM EST 5:24 PM EST
Civil Twilight 6:51 AM EST 5:52 PM EST
Nautical Twilight 6:20 AM EST 6:23 PM EST
Astronomical Twilight 5:50 AM EST 6:53 PM EST
Moon 11:42 PM EST (11/24) 12:12 PM EST (11/24)
Length of Visible Light 11h 00m
Length of Day
10h 05m
Waning Gibbous, 61% of the Moon is Illuminated
Nov 24
Waning Gibbous
Nov 25
Last Quarter
Dec 2
New
Dec 9
First Quarter
Dec 17
Full

Hourly Weather History & Observations

Time (EST) Temp. Windchill Dew Point Humidity Pressure Visibility Wind Dir Wind Speed Gust Speed Precip Events Conditions
12:15 AM 32.5 °F - 20.8 °F 62% 30.29 in 10.0 mi Calm Calm - N/A   Scattered Clouds
12:35 AM 32.0 °F - 20.1 °F 62% 30.29 in 10.0 mi Calm Calm - N/A   Scattered Clouds
12:55 AM 32.0 °F 26.4 °F 19.2 °F 59% 30.29 in 10.0 mi North 5.8 mph - N/A   Scattered Clouds
1:15 AM 31.5 °F 20.9 °F 19.2 °F 61% 30.28 in 10.0 mi ENE 15.0 mph 19.6 mph N/A   Clear
1:35 AM 30.4 °F 23.6 °F 19.8 °F 65% 30.29 in 10.0 mi NE 6.9 mph - N/A   Scattered Clouds
1:55 AM 30.2 °F 24.3 °F 18.7 °F 62% 30.30 in 10.0 mi NNE 5.8 mph 18.4 mph N/A   Scattered Clouds
2:15 AM 29.5 °F 21.8 °F 18.0 °F 62% 30.30 in 10.0 mi NE 8.1 mph 17.3 mph N/A   Clear
2:35 AM 28.4 °F 22.2 °F 17.8 °F 64% 30.31 in 10.0 mi ENE 5.8 mph 18.4 mph N/A   Clear
2:55 AM 27.5 °F 16.8 °F 17.4 °F 66% 30.31 in 10.0 mi East 12.7 mph 16.1 mph N/A   Clear
3:15 AM 27.3 °F 19.1 °F 16.2 °F 63% 30.32 in 10.0 mi East 8.1 mph 16.1 mph N/A   Clear
3:35 AM 26.6 °F 18.2 °F 16.3 °F 65% 30.33 in 10.0 mi ENE 8.1 mph 17.3 mph N/A   Scattered Clouds
3:55 AM 26.4 °F 19.8 °F 16.2 °F 65% 30.33 in 10.0 mi East 5.8 mph - N/A   Clear
4:15 AM 26.2 °F 17.1 °F 16.2 °F 66% 30.33 in 10.0 mi ENE 9.2 mph 19.6 mph N/A   Scattered Clouds
4:35 AM 25.7 °F 19.0 °F 15.6 °F 66% 30.33 in 10.0 mi NNE 5.8 mph 18.4 mph N/A   Mostly Cloudy
4:55 AM 25.5 °F 14.9 °F 15.4 °F 66% 30.34 in 10.0 mi East 11.5 mph 17.3 mph N/A   Mostly Cloudy
5:15 AM 25.0 °F 16.3 °F 15.4 °F 67% 30.36 in 10.0 mi East 8.1 mph - N/A   Scattered Clouds
5:35 AM 23.9 °F 15.8 °F 15.4 °F 70% 30.36 in 10.0 mi ENE 6.9 mph - N/A   Scattered Clouds
5:55 AM 24.6 °F 13.8 °F 14.5 °F 66% 30.36 in 10.0 mi NE 11.5 mph 17.3 mph N/A   Clear
6:15 AM 25.0 °F 13.6 °F 13.1 °F 61% 30.37 in 10.0 mi North 12.7 mph 21.9 mph N/A   Clear
6:35 AM 24.6 °F 12.2 °F 13.5 °F 63% 30.37 in 10.0 mi NNE 15.0 mph - N/A   Clear
6:55 AM 24.4 °F 11.5 °F 13.1 °F 62% 30.38 in 10.0 mi NNE 16.1 mph 20.7 mph N/A   Clear
7:15 AM 23.9 °F 13.5 °F 13.1 °F 63% 30.39 in 10.0 mi NNE 10.4 mph - N/A   Clear
7:35 AM 23.9 °F 12.9 °F 12.9 °F 63% 30.40 in 10.0 mi NNE 11.5 mph - N/A   Clear
7:55 AM 24.1 °F 13.1 °F 12.4 °F 61% 30.40 in 10.0 mi NNE 11.5 mph 17.3 mph N/A   Clear
8:15 AM 25.5 °F 13.8 °F 12.4 °F 58% 30.41 in 10.0 mi NNE 13.8 mph - N/A   Clear
8:35 AM 26.6 °F 15.7 °F 11.3 °F 53% 30.42 in 10.0 mi NNE 12.7 mph 19.6 mph N/A   Clear
8:55 AM 27.7 °F 17.6 °F 11.3 °F 50% 30.43 in 10.0 mi NE 11.5 mph 18.4 mph N/A   Clear
9:15 AM 29.1 °F 19.4 °F 10.2 °F 45% 30.44 in 10.0 mi NNE 11.5 mph 18.4 mph N/A   Clear
9:35 AM 30.0 °F 20.5 °F 8.4 °F 40% 30.44 in 10.0 mi NNE 11.5 mph - N/A   Clear
9:55 AM 31.3 °F 22.1 °F 8.1 °F 38% 30.44 in 10.0 mi NNE 11.5 mph - N/A   Clear
10:15 AM 32.2 °F 23.2 °F 6.6 °F 34% 30.44 in 10.0 mi North 11.5 mph 16.1 mph N/A   Clear
10:35 AM 34.0 °F 27.2 °F 7.5 °F 33% 30.43 in 10.0 mi NNE 8.1 mph - N/A   Clear
10:55 AM 35.1 °F 27.4 °F 6.1 °F 30% 30.42 in 10.0 mi NNE 10.4 mph - N/A   Clear
11:15 AM 35.8 °F 28.3 °F 3.2 °F 25% 30.42 in 10.0 mi NNE 10.4 mph - N/A   Clear
11:35 AM 37.4 °F 29.3 °F 3.9 °F 25% 30.42 in 10.0 mi NE 12.7 mph 17.3 mph N/A   Clear
11:55 AM 38.5 °F 32.1 °F 3.6 °F 23% 30.40 in 10.0 mi NNE 9.2 mph 19.6 mph N/A   Clear
12:15 PM 38.7 °F 32.4 °F 3.9 °F 23% 30.39 in 10.0 mi NNE 9.2 mph 20.7 mph N/A   Clear
12:35 PM 39.2 °F 31.6 °F 4.5 °F 24% 30.38 in 10.0 mi North 12.7 mph 20.7 mph N/A   Clear
12:55 PM 39.4 °F 31.8 °F 4.3 °F 23% 30.38 in 10.0 mi North 12.7 mph 16.1 mph N/A   Clear
1:15 PM 39.7 °F 33.7 °F 3.4 °F 22% 30.37 in 10.0 mi NNE 9.2 mph 19.6 mph N/A   Clear
1:35 PM 40.1 °F 32.4 °F 4.3 °F 23% 30.36 in 10.0 mi NNE 13.8 mph 18.4 mph N/A   Clear
1:55 PM 40.5 °F 33.2 °F 5.4 °F 23% 30.36 in 10.0 mi NNE 12.7 mph 20.7 mph N/A   Clear
2:15 PM 40.8 °F 36.2 °F 5.7 °F 23% 30.35 in 10.0 mi North 6.9 mph 17.3 mph N/A   Clear
2:35 PM 40.8 °F 35.6 °F 5.7 °F 23% 30.34 in 10.0 mi North 8.1 mph 16.1 mph N/A   Clear
2:55 PM 41.2 °F 35.0 °F 7.0 °F 24% 30.34 in 10.0 mi North 10.4 mph 16.1 mph N/A   Clear
3:15 PM 41.2 °F 35.0 °F 6.1 °F 23% 30.33 in 10.0 mi NNW 10.4 mph - N/A   Clear
3:35 PM 41.4 °F 36.2 °F 7.2 °F 24% 30.33 in 10.0 mi North 8.1 mph - N/A   Clear
3:55 PM 41.0 °F 35.2 °F 6.6 °F 24% 30.34 in 10.0 mi North 9.2 mph - N/A   Clear
4:15 PM 40.8 °F 35.6 °F 6.4 °F 24% 30.34 in 10.0 mi North 8.1 mph - N/A   Clear
4:35 PM 40.1 °F 35.3 °F 6.6 °F 25% 30.34 in 10.0 mi North 6.9 mph - N/A   Clear
4:55 PM 39.2 °F 34.2 °F 7.0 °F 26% 30.33 in 10.0 mi NNW 6.9 mph - N/A   Clear
5:15 PM 37.4 °F 32.8 °F 7.0 °F 28% 30.34 in 10.0 mi North 5.8 mph - N/A   Clear
5:35 PM 35.6 °F - 8.2 °F 32% 30.36 in 10.0 mi Calm Calm - N/A   Clear
5:55 PM 33.6 °F - 10.4 °F 38% 30.37 in 10.0 mi Calm Calm - N/A   Clear
6:15 PM 29.1 °F - 15.4 °F 57% 30.38 in 10.0 mi Calm Calm - N/A   Clear
6:35 PM 27.1 °F - 16.2 °F 63% 30.39 in 10.0 mi Calm Calm - N/A   Clear
6:55 PM 28.4 °F - 17.8 °F 64% 30.40 in 10.0 mi Calm Calm - N/A   Clear
7:15 PM 26.4 °F - 18.0 °F 70% 30.40 in 10.0 mi Calm Calm - N/A   Clear
7:35 PM 27.3 °F - 17.4 °F 66% 30.41 in 10.0 mi Calm Calm - N/A   Clear
7:55 PM 27.7 °F - 18.0 °F 67% 30.42 in 10.0 mi Calm Calm - N/A   Clear
8:15 PM 27.0 °F - 18.3 °F 70% 30.42 in 10.0 mi Calm Calm - N/A   Clear
8:35 PM 26.1 °F - 18.5 °F 73% 30.42 in 10.0 mi Calm Calm - N/A   Clear
8:55 PM 25.3 °F - 17.6 °F 72% 30.41 in 10.0 mi Calm Calm - N/A   Clear
9:15 PM 25.7 °F - 17.6 °F 71% 30.40 in 10.0 mi Calm Calm - N/A   Clear
9:35 PM 24.6 °F - 19.8 °F 82% 30.40 in 10.0 mi Calm Calm - N/A   Clear
9:55 PM 25.3 °F - 18.5 °F 75% 30.41 in 10.0 mi Calm Calm - N/A   Clear
10:15 PM 24.6 °F - 20.3 °F 84% 30.41 in 10.0 mi Calm Calm - N/A   Clear
10:35 PM 25.5 °F - 18.9 °F 76% 30.41 in 10.0 mi Calm Calm - N/A   Clear
10:55 PM 24.6 °F - 19.4 °F 81% 30.42 in 10.0 mi Calm Calm - N/A   Clear
11:15 PM 24.6 °F - 19.9 °F 82% 30.43 in 10.0 mi Calm Calm - N/A   Clear
11:35 PM 23.9 °F - 19.9 °F 85% 30.44 in 10.0 mi Calm Calm - N/A   Clear
11:55 PM 24.4 °F - 19.6 °F 82% 30.44 in 10.0 mi Calm Calm - N/A   Clear